This demonstration page uses our WeatherBlox Daily Observations layout. Learn more.

Left ArrowRight Arrow

39.08367, -84.50855

Hourly Observations for September 16, 2021

Temp ( °F °C ) Dew Point ( °F °C ) Humidity (%) Winds ( mph kmh ) Pressure ( in mb ) Visibility ( mi km ) Precip ( " mm )
12:53 am 00:53 Cloudy 66 18.9 63 17.2 90 90 N N/A 30.05 1018 10 16 N/A
1:53 am 01:53 Cloudy 67 19.4 63 17.2 87 87 NE 3 6 30.05 1018 10 16 N/A
2:53 am 02:53 Mostly Clear 65 18.3 63 17.2 93 93 N N/A 30.05 1018 10 16 N/A
3:53 am 03:53 Clear 62 16.7 62 16.7 100 100 N N/A 30.05 1018 10 16 N/A
4:53 am 04:53 Mostly Clear 63 17.2 61 16.1 93 93 N N/A 30.05 1018 10 16 N/A
5:03 am 05:03 Partly Cloudy 62 16.7 61 16.1 96 96 N N/A 30.05 1018 7 11 N/A
5:15 am 05:15 Mostly Cloudy 62 16.7 61 16.1 96 96 N N/A 30.06 1018 9 14 N/A
5:53 am 05:53 Cloudy 65 18.3 63 17.2 93 93 NNE 5 7 30.06 1018 10 16 N/A
6:53 am 06:53 Cloudy 65 18.3 63 17.2 93 93 NE 6 9 30.07 1018 10 16 N/A
7:53 am 07:53 Cloudy 66 18.9 63 17.2 90 90 NE 3 6 30.09 1019 10 16 N/A
8:53 am 08:53 Cloudy 68 20 65 18.3 90 90 NE 3 6 30.11 1020 10 16 N/A
9:53 am 09:53 Cloudy 70 21.1 66 18.9 87 87 NNE 7 11 30.11 1020 10 16 N/A
10:41 am 10:41 Cloudy 73 22.8 66 18.9 79 79 NE 6 9 30.11 1020 10 16 N/A
10:53 am 10:53 Cloudy 72 22.2 66 18.9 82 82 NE 6 9 30.12 1020 10 16 N/A
11:53 am 11:53 Cloudy 75 23.9 66 18.9 74 74 NE 7 11 30.12 1020 10 16 N/A
12:53 pm 12:53 Cloudy 76 24.4 65 18.3 69 69 NE 7 11 30.11 1020 10 16 N/A
1:53 pm 13:53 Cloudy 78 25.6 65 18.3 64 64 NNE 9 15 30.10 1019 10 16 N/A
2:20 pm 14:20 Mostly Cloudy 78 25.6 65 18.3 64 64 N 6 9 30.08 1019 10 16 N/A
2:53 pm 14:53 Mostly Cloudy 79 26.1 65 18.3 62 62 NE 9 15 30.08 1019 10 16 N/A
3:53 pm 15:53 Partly Cloudy 81 27.2 66 18.9 61 61 NE 8 13 30.06 1018 10 16 N/A
4:53 pm 16:53 Mostly Cloudy 81 27.2 65 18.3 58 58 NNE 8 13 30.05 1018 10 16 N/A
5:53 pm 17:53 Mostly Sunny 82 27.8 66 18.9 58 58 NE 9 15 30.05 1018 10 16 N/A
6:53 pm 18:53 Sunny 79 26.1 65 18.3 62 62 NE 3 6 30.05 1018 10 16 N/A
7:53 pm 19:53 Clear 72 22.2 66 18.9 82 82 N N/A 30.06 1018 10 16 N/A
8:53 pm 20:53 Clear 70 21.1 67 19.4 90 90 NNE 3 6 30.08 1019 10 16 N/A
9:53 pm 21:53 Clear 67 19.4 65 18.3 93 93 N N/A 30.10 1019 10 16 N/A
10:53 pm 22:53 Clear 66 18.9 65 18.3 96 96 N N/A 30.10 1019 10 16 N/A
11:53 pm 23:53 Clear 65 18.3 64 17.8 97 97 N N/A 30.10 1019 10 16 N/A

Powered by AerisWeather